COSMOS 332

Satellite information

Favourite Embed

Satellite Type and Status

PAYLOADIN ORBIT

Key statistics

Satellite COSMOS 332 at a glance.

Uptime

20116

Days in orbit

Revolutions

≈ 14.5

Per day

Orbit

LEO

Low Earth Orbit

Inclination

74.0

Latest

Satellite identification and parameters

Extended collection of information and parameters for COSMOS 332.

Object identification

Identified? True

Debris? False

Object name: COSMOS 332

International designator: 1970-028A

Object number (NORAD): 4369

Object ID (CCSDS): 4369

Country: COMMONWEALTH OF INDEPENDENT STATES (CIS)

Current information (Y/N): Y

RCS size: LARGE

Orbital parameters

Period: 99.112 minutes

Inclination: 74.035 deg

SMA: 7094.331 km

Apoapsis: 720.982 km

Periapsis: 711.41 km

RAAN: 309.6734 deg

Eccentricy: 0.0006746

Argument of periapsis: 272.4283 deg

Mean anomaly: 87.6106 deg

Mean motion: 14.52899565 rev/day

Mean motion (dot): 0.00000378 rev/day2

B* drag term: 0.000098526 1/REarth

Two-line elements (TLE)

Creation date: May 8, 2025, 3:01 a.m.

Reference frame: TEME

Reference center: EARTH

Epoch: May 7, 2025, 7:56 p.m. UTC

TLE line 0: 0 COSMOS 332

TLE line 1: 1 04369U 70028A 25127.83102119 .00000378 00000-0 98526-4 0 9993

TLE line 2: 2 04369 74.0350 309.6734 0006746 272.4283 87.6106 14.52899565909220

Live tracking on map

Real-time ground track for satellite COSMOS 332.

In-orbit conjunctions

A list of the most updated potential collisions computed for object COSMOS 332.

Target Orbit TCA Probability of collision Miss distance Type
COSMOS 1275 DEB LEO 2024-12-21 19:11:49 0.000132782 284.0 (m) DEBRIS
IRIDIUM 33 DEB LEO 2024-09-01 02:03:28 0.000192409 115.0 (m) DEBRIS
FENGYUN 1C DEB SSO 2024-08-21 19:26:27 0.0001614215 580.0 (m) DEBRIS

Associated space launch

The first soviet navigation system called Tsiklon consisted of Zaliv satellites in low earth orbit.

COSMOS 332 was lifted into orbit during the mission ‘Kosmos-3M | Zaliv 5’, on board a Kosmos-3M space rocket.

The launch took place on April 11, 1970, 5 p.m. from 132/2.

For more information about the launch, click the button.

Launch to space Kosmos-3M | Zaliv 5
Kosmos-3M | Zaliv 5

Agency: N/A

Status: Launch Successful

Launch date: April 11, 1970, 5 p.m. UTC

Rocket: Kosmos-3M

Launch pad: 132/2

Location: Plesetsk Cosmodrome, Russian Federation

...

Latest news about this satellite

There are no fresh news available about this satellite. Check back as we update our databases every day.


Newsletter sign-up

Weekly statistics, charts and insights to help you stay on top of the space industry.